Location: PACMO
(41.3967°N, 90.3760°W)
Time: 19:56:37
(UTC-06:00)

Amateur Radio Satellites - All Passes

Search period start: 27 February 2015 19:26
Search period end: 28 February 2015 19:26
Location: PACMO, 41.3967°N, 90.3760°W

Satellite Date Start Highest point End Downlink Frequencies (MHz)
Time Altitude Azimuth
SEEDS 27 Feb 19:27:08 19:30:38 27° 70° (ENE) 19:34:13 437.485
CUTE 1.7 + AOD 2 27 Feb 19:43:21 19:47:25 49° 73° (ENE) 19:51:30 437.475
PCSat 27 Feb 19:44:49 19:45:55 11° 103° (ESE) 19:47:24 145.827
CUBEBUG 2 27 Feb 19:52:13 19:54:44 15° 66° (ENE) 19:57:23 437.445
PHONESAT 2.4 27 Feb 20:06:31 20:10:01 46° 163° (SSE) 20:13:31 2401.200-2431.200
Oscar 11 27 Feb 20:07:53 20:11:31 28° 69° (ENE) 20:15:12 145.826/435.025
DOVE 4 27 Feb 20:09:39 20:14:52 75° 76° (ENE) 20:19:53 437.250
O/OREOS (USA 219) 27 Feb 20:12:53 20:17:19 48° 252° (WSW) 20:21:42 437.305
DX 1 27 Feb 20:26:25 20:29:52 24° 68° (ENE) 20:33:25 434.975-435.025
VERMONT LUNAR 27 Feb 20:26:47 20:30:16 72° 173° (S) 20:33:45 437.305
HO-68 27 Feb 20:27:49 20:34:51 59° 259° (WSW) 20:41:55 435.675
VELOX 1 27 Feb 20:28:41 20:28:58 10° 61° (ENE) 20:29:30 145.980
AIST 2 27 Feb 20:31:35 20:34:06 15° 321° (NW) 20:36:30 435.215
DELFI C3 27 Feb 20:32:45 20:36:29 38° 72° (ENE) 20:40:17 145.870
BRITE-PL 27 Feb 20:34:40 20:39:52 35° 265° (W) 20:44:55 437.365/2234.400
COMPASS 1 27 Feb 20:39:50 20:43:54 53° 260° (W) 20:47:59 437.405
AAUSAT CUBESAT 2 27 Feb 20:39:54 20:44:00 61° 259° (W) 20:48:07 437.432
CINEMA 3 27 Feb 20:43:04 20:47:57 89° 77° (ENE) 20:52:39 145.822/145.860
ZACube-1 27 Feb 20:45:06 20:49:07 35° 72° (ENE) 20:53:05 437.345
FUNcube-1 27 Feb 20:45:09 20:49:07 35° 71° (ENE) 20:53:04 145.935
GONETS M04 27 Feb 20:46:51 20:53:10 24° 82° (E) 20:59:50
STRAND 1 27 Feb 20:52:21 20:54:23 12° 300° (WNW) 20:56:09 437.568
UWE-3 27 Feb 20:56:12 21:00:37 58° 74° (ENE) 21:04:56 435.000/436.395/437.385
GOMX 1 27 Feb 20:57:12 21:01:59 30° 266° (W) 21:06:34 467.674
UKube-1 27 Feb 20:59:27 21:03:39 49° 72° (ENE) 21:07:53 .
CANX-2 27 Feb 21:01:10 21:04:23 20° 268° (W) 21:07:30 2200.000
SEEDS 27 Feb 21:02:59 21:06:28 24° 266° (W) 21:09:53 437.485
HUMSAT D 27 Feb 21:14:55 21:18:49 38° 72° (ENE) 21:22:44 437.325/437.525
CUTE 1.7 + AOD 2 27 Feb 21:21:24 21:23:42 14° 271° (W) 21:25:49 437.475
PCSat 27 Feb 21:23:12 21:28:37 86° 122° (ESE) 21:34:06 145.827
CUBEBUG 2 27 Feb 21:26:35 21:31:05 55° 260° (W) 21:35:28 437.445
Oscar 11 27 Feb 21:44:02 21:47:41 26° 266° (W) 21:51:15 145.826/435.025
PHONESAT 2.4 27 Feb 21:44:43 21:48:22 79° 179° (S) 21:52:00 2401.200-2431.200
50 SAT 27 Feb 21:46:31 21:50:28 62° 75° (ENE) 21:54:25 437.505
AISAT 27 Feb 21:49:17 21:53:46 73° 75° (ENE) 21:58:18 437.250
DOVE 4 27 Feb 21:50:39 21:53:10 13° 272° (W) 21:55:22 437.250
VELOX 1 27 Feb 22:00:26 22:04:56 88° 263° (W) 22:09:27 145.980
DX 1 27 Feb 22:02:02 22:06:00 32° 263° (W) 22:09:57 434.975-435.025
ESTCUBE 1 27 Feb 22:03:38 22:07:57 47° 72° (ENE) 22:12:20 437.505/2401.250
VERMONT LUNAR 27 Feb 22:04:40 22:08:09 66° 190° (S) 22:11:35 437.305
CUBEBUG 1 27 Feb 22:04:42 22:08:54 44° 72° (ENE) 22:13:09 437.445
DUCHIFAT 1 27 Feb 22:05:33 22:08:01 16° 91° (E) 22:10:39 145.980
DELFI C3 27 Feb 22:09:20 22:11:56 16° 269° (W) 22:14:22 145.870
BUGSAT 1 27 Feb 22:13:03 22:15:08 14° 90° (E) 22:17:23 437.445
UNISAT 6 27 Feb 22:19:56 22:24:00 42° 98° (E) 22:28:07 437.425
POLYITAN 1 27 Feb 22:21:07 22:24:31 24° 94° (E) 22:27:59 437.675
FUNcube-1 27 Feb 22:22:11 22:25:35 21° 267° (W) 22:28:50 145.935
ZACube-1 27 Feb 22:22:14 22:25:37 21° 267° (W) 22:28:51 437.345
POPSAT HIP 1 27 Feb 22:23:19 22:26:47 25° 94° (E) 22:30:18 437.405
RS-15 27 Feb 22:30:10 22:39:11 33° 107° (ESE) 22:48:35 29.354- 29.394
UWE-3 27 Feb 22:35:20 22:37:35 13° 271° (W) 22:39:34 435.000/436.395/437.385
UKube-1 27 Feb 22:37:34 22:40:09 15° 270° (W) 22:42:33 .
GONETS M04 27 Feb 22:40:37 22:49:18 71° 281° (W) 22:57:59
TIGRISAT 27 Feb 22:46:33 22:50:50 83° 102° (ESE) 22:55:08 435.000
NANOSAT C BR1 27 Feb 22:47:23 22:51:28 46° 99° (E) 22:55:32 145.865
SPROUT 27 Feb 22:50:13 22:54:06 34° 71° (ENE) 22:58:03 437.525
HUMSAT D 27 Feb 22:51:53 22:54:48 18° 268° (W) 22:57:35 437.325/437.525
ANTELSAT 27 Feb 22:58:18 23:02:34 71° 285° (WNW) 23:06:52 437.575/2403.000
TISAT 1 27 Feb 23:05:38 23:09:43 45° 73° (ENE) 23:13:51 437.305
PCSat 27 Feb 23:09:11 23:12:50 18° 319° (NW) 23:16:21 145.827
QB50P1 27 Feb 23:19:15 23:23:31 74° 284° (WNW) 23:27:42 145.935-145.965
QB50P2 27 Feb 23:21:56 23:26:10 68° 285° (WNW) 23:30:21 145.880/145.840
PHONESAT 2.4 27 Feb 23:23:12 23:26:44 50° 196° (SSW) 23:30:14 2401.200-2431.200
DANDE 27 Feb 23:23:40 23:29:25 27° 94° (E) 23:34:17 436.750
ITUPSAT 1 27 Feb 23:25:24 23:27:39 14° 62° (ENE) 23:30:08 437.325
AISAT 27 Feb 23:29:59 23:31:00 10° 273° (W) 23:31:43 437.250
DUCHIFAT 1 27 Feb 23:40:07 23:44:10 43° 288° (WNW) 23:48:09 145.980
ESTCUBE 1 27 Feb 23:42:11 23:45:09 17° 270° (W) 23:47:58 437.505/2401.250
CUBEBUG 1 27 Feb 23:42:31 23:45:32 17° 269° (W) 23:48:26 437.445
VERMONT LUNAR 27 Feb 23:42:53 23:45:47 24° 206° (SSW) 23:48:38 437.305
BUGSAT 1 27 Feb 23:46:56 23:50:59 48° 287° (WNW) 23:54:57 437.445
POLYITAN 1 27 Feb 23:56:49 00:00:29 28° 290° (WNW) 00:04:05 437.675
UNISAT 6 27 Feb 23:57:38 00:00:33 18° 294° (WNW) 00:03:21 437.425
POPSAT HIP 1 27 Feb 23:59:03 00:02:41 27° 291° (WNW) 00:06:14 437.405
CUSAT 1 28 Feb 00:11:28 00:18:19 78° 99° (E) 00:23:30 437.405
NANOSAT C BR1 28 Feb 00:24:22 00:27:01 16° 294° (WNW) 00:29:29 145.865
SWISSCUBE 28 Feb 00:25:47 00:30:27 57° 73° (ENE) 00:35:10 437.505
SPROUT 28 Feb 00:26:55 00:30:19 21° 267° (W) 00:33:37 437.525
BEESAT 28 Feb 00:34:58 00:39:41 66° 74° (ENE) 00:44:27 436.000
RS-15 28 Feb 00:39:57 00:50:49 69° 308° (NW) 01:01:53 29.354- 29.394
TISAT 1 28 Feb 00:43:10 00:45:50 16° 269° (W) 00:48:21 437.305
GONETS M04 28 Feb 00:43:41 00:48:11 14° 305° (NW) 00:52:06
Oscar 19 28 Feb 00:45:12 00:49:22 25° 94° (E) 00:53:37 437.125/150
ITUPSAT 1 28 Feb 01:00:16 01:05:01 72° 257° (WSW) 01:09:50 437.325
PHONESAT 2.4 28 Feb 01:02:29 01:04:45 16° 211° (SSW) 01:06:57 2401.200-2431.200
DANDE 28 Feb 01:05:42 01:12:44 49° 282° (WNW) 01:18:07 436.750
Gurwin Techsat 1B 28 Feb 01:30:14 01:33:35 17° 90° (E) 01:37:10 435.225
BEESAT 3 28 Feb 01:33:05 01:35:57 18° 42° (NE) 01:38:52 437.485
KKS-1 28 Feb 01:37:38 01:42:01 56° 73° (ENE) 01:46:26 437.445
STARS 28 Feb 01:51:21 01:55:39 51° 73° (ENE) 01:59:58 437.465
BEESAT 2 28 Feb 01:54:45 01:58:08 24° 46° (NE) 02:01:33 435.950
SO-50 28 Feb 01:57:33 02:01:54 46° 117° (ESE) 02:06:27 436.795
CUSAT 1 28 Feb 01:57:51 02:01:25 15° 291° (WNW) 02:04:18 437.405
SWISSCUBE 28 Feb 02:05:56 02:08:46 15° 270° (W) 02:11:24 437.505
ITAMSAT 1 28 Feb 02:15:07 02:20:18 60° 101° (E) 02:25:27 435.822/435.867
BEESAT 28 Feb 02:15:46 02:18:06 13° 272° (W) 02:20:11 436.000
Oscar 19 28 Feb 02:24:07 02:28:52 38° 290° (WNW) 02:33:33 437.125/150
MOZHAYETS 4 28 Feb 02:31:07 02:31:22 10° 62° (ENE) 02:31:53
YUBILEINY 28 Feb 02:42:34 02:50:48 42° 72° (ENE) 02:59:06 435.215
RS-15 28 Feb 02:56:51 03:05:47 27° 337° (NNW) 03:14:45 29.354- 29.394
Gurwin Techsat 1B 28 Feb 03:08:48 03:14:03 59° 288° (WNW) 03:19:16 435.225
BEESAT 3 28 Feb 03:10:21 03:14:24 54° 242° (WSW) 03:18:22 437.485
AIST 2 28 Feb 03:12:35 03:16:47 52° 53° (NE) 03:20:54 435.215
KKS-1 28 Feb 03:16:43 03:19:06 14° 271° (W) 03:21:16 437.445
M-CUBED/EXP-1 PRIME 28 Feb 03:18:22 03:21:40 84° 75° (ENE) 03:25:03 437.505
JAS-2 28 Feb 03:18:49 03:24:29 24° 90° (E) 03:30:40 435.910
AUBIESAT-1 28 Feb 03:22:58 03:26:15 84° 74° (ENE) 03:29:39 437.475
STARS 28 Feb 03:29:52 03:32:29 15° 270° (W) 03:34:55 437.465
HORYU 2 28 Feb 03:30:56 03:35:22 70° 102° (ESE) 03:39:48 437.375
BEESAT 2 28 Feb 03:32:35 03:36:26 36° 244° (WSW) 03:40:12 435.950
AO-7 28 Feb 03:34:30 03:42:08 40° 98° (E) 03:49:49 29.400- 29.500
SO-50 28 Feb 03:38:50 03:42:43 25° 317° (NW) 03:46:37 436.795
ITAMSAT 1 28 Feb 03:55:49 03:59:23 18° 297° (WNW) 04:02:47 435.822/435.867
MOZHAYETS 4 28 Feb 04:03:24 04:07:58 88° 257° (WSW) 04:12:34
CUBESAT XI-V 28 Feb 04:20:09 04:21:40 12° 62° (ENE) 04:23:26 437.345
PCSat 28 Feb 04:29:27 04:32:00 13° 37° (NE) 04:34:45 145.827
YUBILEINY 28 Feb 04:39:29 04:47:42 43° 272° (W) 04:55:46 435.215
PRISM 28 Feb 04:42:29 04:45:23 19° 66° (ENE) 04:48:24 437.425
STRAND 1 28 Feb 04:49:47 04:53:00 18° 63° (ENE) 04:56:25 437.568
AIST 2 28 Feb 04:52:26 04:55:01 15° 249° (WSW) 04:57:24 435.215
JAS-2 28 Feb 05:02:46 05:10:03 71° 286° (WNW) 05:17:48 435.910
HORYU 2 28 Feb 05:09:37 05:11:32 12° 297° (WNW) 05:13:16 437.375
RS-15 28 Feb 05:15:08 05:23:18 22° 12° (NNE) 05:31:51 29.354- 29.394
Cubesat XI-IV 28 Feb 05:19:43 05:23:27 20° 91° (E) 05:27:22 437.490
AO-7 28 Feb 05:27:14 05:35:04 47° 297° (WNW) 05:42:49 29.400- 29.500
CUTE-I 28 Feb 05:29:15 05:33:28 24° 93° (E) 05:37:47 437.470
CUBESAT XI-V 28 Feb 05:53:50 05:58:31 81° 258° (WSW) 06:03:15 437.345
PCSat 28 Feb 06:11:06 06:16:32 69° 58° (ENE) 06:21:56 145.827
PRISM 28 Feb 06:16:50 06:20:40 36° 262° (W) 06:24:32 437.425
STRAND 1 28 Feb 06:26:41 06:31:46 62° 259° (WSW) 06:36:54 437.568
JAS-2 28 Feb 06:50:10 06:54:10 15° 303° (WNW) 06:57:53 435.910
GONETS M04 28 Feb 06:57:50 06:59:59 11° 52° (NE) 07:02:49
Cubesat XI-IV 28 Feb 06:58:42 07:03:57 54° 289° (WNW) 07:09:09 437.490
CUTE-I 28 Feb 07:08:41 07:13:47 44° 290° (WNW) 07:18:49 437.470
AO-7 28 Feb 07:24:01 07:26:00 11° 317° (NW) 07:27:30 29.400- 29.500
RS-15 28 Feb 07:28:38 07:39:29 48° 43° (NE) 07:50:53 29.354- 29.394
AIST 1 28 Feb 07:28:49 07:33:09 90° 150° (SSE) 07:37:34
HO-68 28 Feb 07:55:52 08:01:45 28° 93° (E) 08:07:47 435.675
PCSat 28 Feb 07:56:03 07:59:27 16° 254° (WSW) 08:02:36 145.827
DOVE 4 28 Feb 08:10:34 08:13:21 17° 90° (E) 08:16:13 437.250
AAUSAT CUBESAT 2 28 Feb 08:23:48 08:26:54 20° 93° (E) 08:30:06 437.432
COMPASS 1 28 Feb 08:23:55 08:27:17 24° 94° (E) 08:30:43 437.405
ANTELSAT 28 Feb 08:24:50 08:25:28 10° 63° (ENE) 08:26:21 437.575/2403.000
CINEMA 3 28 Feb 08:39:20 08:42:14 18° 92° (E) 08:45:13 145.822/145.860
BRITE-PL 28 Feb 08:39:52 08:44:35 85° 100° (E) 08:48:55 437.365/2234.400
CANX-2 28 Feb 08:45:10 08:49:25 67° 100° (E) 08:53:39 2200.000
SEEDS 28 Feb 08:46:32 08:50:40 52° 99° (E) 08:54:48 437.485
O/OREOS (USA 219) 28 Feb 08:47:09 08:50:17 19° 102° (ESE) 08:53:34 437.305
UWE-3 28 Feb 08:49:19 08:49:41 10° 88° (E) 08:50:19 435.000/436.395/437.385
GONETS M04 28 Feb 08:50:40 08:59:17 60° 77° (ENE) 09:07:57
GOMX 1 28 Feb 08:59:03 09:03:34 90° 216° (SW) 09:07:48 467.674
DUCHIFAT 1 28 Feb 08:59:13 09:01:11 13° 64° (ENE) 09:03:21 145.980
CUTE 1.7 + AOD 2 28 Feb 09:04:12 09:08:29 82° 282° (WNW) 09:12:43 437.475
BUGSAT 1 28 Feb 09:04:33 09:05:54 12° 63° (ENE) 09:07:28 437.445
ISS 28 Feb 09:10:34 09:13:14 24° 135° (SE) 09:15:57 145.825
POLYITAN 1 28 Feb 09:14:52 09:17:58 20° 67° (ENE) 09:21:10 437.675
POPSAT HIP 1 28 Feb 09:16:46 09:19:55 21° 68° (ENE) 09:23:11 437.405
CUBEBUG 2 28 Feb 09:18:12 09:21:46 28° 95° (E) 09:25:22 437.445
UNISAT 6 28 Feb 09:19:09 09:23:16 39° 72° (ENE) 09:27:20 437.425
Oscar 11 28 Feb 09:30:28 09:34:43 55° 99° (E) 09:38:59 145.826/435.025
NANOSAT C BR1 28 Feb 09:40:12 09:44:06 36° 71° (ENE) 09:48:03 145.865
RS-15 28 Feb 09:41:11 09:52:18 57° 246° (WSW) 10:03:48 29.354- 29.394
AISAT 28 Feb 09:41:56 09:44:10 14° 89° (E) 09:46:36 437.250
HO-68 28 Feb 09:42:53 09:49:54 57° 291° (WNW) 09:56:53 435.675
TIGRISAT 28 Feb 09:45:17 09:49:42 74° 77° (ENE) 09:54:04 435.000
DOVE 4 28 Feb 09:47:23 09:51:26 38° 289° (WNW) 09:55:18 437.250
DELFI C3 28 Feb 09:47:24 09:51:29 69° 101° (E) 09:55:33 145.870
DX 1 28 Feb 09:50:00 09:54:09 41° 98° (E) 09:58:16 434.975-435.025
VELOX 1 28 Feb 09:52:15 09:55:11 18° 91° (E) 09:58:16 145.980
ANTELSAT 28 Feb 09:57:18 10:01:45 80° 258° (WSW) 10:06:08 437.575/2403.000
AAUSAT CUBESAT 2 28 Feb 09:58:53 10:02:39 32° 289° (WNW) 10:06:23 437.432
COMPASS 1 28 Feb 09:59:22 10:03:00 28° 290° (WNW) 10:06:36 437.405
FUNcube-1 28 Feb 10:09:25 10:13:34 73° 101° (ESE) 10:17:43 145.935
ZACube-1 28 Feb 10:09:38 10:13:48 74° 101° (ESE) 10:17:57 437.345
QB50P1 28 Feb 10:11:52 10:16:09 83° 77° (ENE) 10:20:28 145.935-145.965
QB50P2 28 Feb 10:14:42 10:19:01 90° 140° (SE) 10:23:20 145.880/145.840
CINEMA 3 28 Feb 10:15:48 10:19:38 34° 289° (WNW) 10:23:23 145.822/145.860
BRITE-PL 28 Feb 10:21:36 10:22:22 10° 300° (WNW) 10:22:52 437.365/2234.400
UWE-3 28 Feb 10:22:39 10:26:46 63° 285° (WNW) 10:30:52 435.000/436.395/437.385
UKube-1 28 Feb 10:22:57 10:27:20 89° 284° (WNW) 10:31:40 .
CANX-2 28 Feb 10:23:17 10:24:53 12° 296° (WNW) 10:26:17 2200.000
SEEDS 28 Feb 10:23:45 10:26:07 14° 295° (WNW) 10:28:19 437.485
O/OREOS (USA 219) 28 Feb 10:25:05 10:29:25 42° 298° (WNW) 10:33:48 437.305
SO-50 28 Feb 10:28:46 10:33:31 45° 51° (NE) 10:38:15 436.795
DUCHIFAT 1 28 Feb 10:32:22 10:36:36 59° 259° (W) 10:40:51 145.980
HUMSAT D 28 Feb 10:34:31 10:38:38 74° 101° (ESE) 10:42:45 437.325/437.525
BUGSAT 1 28 Feb 10:36:37 10:40:53 70° 258° (WSW) 10:45:10 437.445
ISS 28 Feb 10:46:29 10:49:33 39° 332° (NNW) 10:52:37 145.825
GONETS M04 28 Feb 10:48:22 10:55:40 30° 276° (W) 11:02:45
POLYITAN 1 28 Feb 10:49:42 10:53:42 36° 263° (W) 10:57:41 437.675
POPSAT HIP 1 28 Feb 10:51:39 10:55:38 35° 263° (W) 10:59:35 437.405
CUSAT 1 28 Feb 10:52:10 10:54:36 30° 75° (ENE) 10:56:58 437.405
CUBEBUG 2 28 Feb 10:55:03 10:58:26 23° 291° (WNW) 11:01:42 437.445
UNISAT 6 28 Feb 10:57:01 11:00:15 19° 268° (W) 11:03:19 437.425
50 SAT 28 Feb 10:59:56 11:03:54 78° 284° (WNW) 11:07:51 437.505
Oscar 11 28 Feb 11:08:06 11:10:31 14° 295° (WNW) 11:12:46 145.826/435.025
AISAT 28 Feb 11:16:50 11:21:12 54° 287° (WNW) 11:25:31 437.250
NANOSAT C BR1 28 Feb 11:16:55 11:20:07 20° 268° (W) 11:23:12 145.865
DELFI C3 28 Feb 11:25:12 11:26:12 11° 296° (WNW) 11:26:59 145.870
DX 1 28 Feb 11:27:00 11:30:08 19° 294° (WNW) 11:33:08 434.975-435.025
VELOX 1 28 Feb 11:27:48 11:32:02 43° 288° (WNW) 11:36:12 145.980
CUBEBUG 1 28 Feb 11:29:41 11:34:08 89° 97° (E) 11:38:32 437.445
ESTCUBE 1 28 Feb 11:32:53 11:37:28 79° 284° (WNW) 11:42:00 437.505/2401.250
HO-68 28 Feb 11:34:01 11:36:18 11° 310° (NW) 11:38:10 435.675
FUNcube-1 28 Feb 11:48:48 11:49:25 10° 297° (WNW) 11:49:48 145.935
DANDE 28 Feb 11:49:34 11:52:08 34° 265° (W) 11:54:31 436.750
ITAMSAT 1 28 Feb 11:57:29 11:59:31 13° 60° (ENE) 12:01:49 435.822/435.867
Oscar 19 28 Feb 12:02:01 12:06:42 38° 70° (ENE) 12:11:26 437.125/150
SO-50 28 Feb 12:09:51 12:13:52 24° 247° (WSW) 12:17:44 436.795
SPROUT 28 Feb 12:12:27 12:16:44 66° 101° (E) 12:21:00 437.525
ISS 28 Feb 12:24:41 12:26:38 15° 351° (N) 12:28:35 145.825
TISAT 1 28 Feb 12:25:55 12:30:11 85° 103° (ESE) 12:34:23 437.305
SWISSCUBE 28 Feb 12:27:37 12:30:13 15° 89° (E) 12:33:03 437.505
BEESAT 28 Feb 12:36:26 12:39:27 17° 90° (E) 12:42:37 436.000
AO-7 28 Feb 12:47:03 12:50:09 13° 45° (NE) 12:53:42 29.400- 29.500
Gurwin Techsat 1B 28 Feb 12:51:06 12:55:32 28° 67° (ENE) 13:00:05 435.225
ITUPSAT 1 28 Feb 13:01:15 13:05:26 29° 95° (E) 13:09:40 437.325
KKS-1 28 Feb 13:31:35 13:32:26 11° 88° (E) 13:33:33 437.445
ITAMSAT 1 28 Feb 13:33:07 13:38:21 90° 288° (WNW) 13:43:38 435.822/435.867
Oscar 19 28 Feb 13:41:51 13:46:10 26° 266° (W) 13:50:25 437.125/150
SPROUT 28 Feb 13:50:34 13:52:21 12° 296° (WNW) 13:53:56 437.525
ISS 28 Feb 14:01:58 14:04:02 16° 11° (N) 14:06:08 145.825
SWISSCUBE 28 Feb 14:03:48 14:08:34 59° 287° (WNW) 14:13:17 437.505
BEESAT 28 Feb 14:13:00 14:17:40 52° 288° (WNW) 14:22:18 436.000
HORYU 2 28 Feb 14:29:18 14:33:41 65° 74° (ENE) 14:38:06 437.375
Gurwin Techsat 1B 28 Feb 14:30:29 14:35:24 37° 263° (W) 14:40:19 435.225
AO-7 28 Feb 14:33:17 14:41:18 55° 65° (ENE) 14:49:23 29.400- 29.500
ITUPSAT 1 28 Feb 14:39:06 14:43:19 30° 292° (WNW) 14:47:28 437.325
KKS-1 28 Feb 15:05:14 15:09:40 70° 286° (WNW) 15:14:04 437.445
JAS-2 28 Feb 15:15:50 15:21:02 51° 70° (ENE) 15:26:51 435.910
STARS 28 Feb 15:17:25 15:21:50 80° 284° (WNW) 15:26:11 437.465
ITAMSAT 1 28 Feb 15:17:45 15:18:43 10° 274° (W) 15:19:17 435.822/435.867
ISS 28 Feb 15:37:54 15:41:03 48° 30° (NNE) 15:44:13 145.825
YUBILEINY 28 Feb 15:43:28 15:51:37 48° 89° (E) 15:59:57 435.215
MOZHAYETS 4 28 Feb 15:59:13 16:02:46 22° 93° (E) 16:06:25
HORYU 2 28 Feb 16:09:12 16:10:53 12° 272° (W) 16:12:18 437.375
AO-7 28 Feb 16:27:01 16:34:28 34° 264° (W) 16:41:48 29.400- 29.500
M-CUBED/EXP-1 PRIME 28 Feb 16:33:33 16:37:43 69° 107° (ESE) 16:42:12 437.505
AUBIESAT-1 28 Feb 16:37:37 16:41:47 68° 107° (ESE) 16:46:17 437.475
Cubesat XI-IV 28 Feb 16:41:31 16:46:14 33° 68° (ENE) 16:51:03 437.490
CUTE-I 28 Feb 16:50:59 16:55:55 40° 69° (ENE) 17:00:56 437.470
JAS-2 28 Feb 17:02:36 17:06:43 21° 272° (W) 17:10:56 435.910
BEESAT 3 28 Feb 17:04:30 17:07:55 27° 114° (ESE) 17:11:27 437.485
AIST 2 28 Feb 17:13:59 17:14:58 11° 109° (ESE) 17:16:11 435.215
ISS 28 Feb 17:14:51 17:17:18 20° 226° (SW) 17:19:42 145.825
BEESAT 2 28 Feb 17:26:50 17:30:40 39° 117° (ESE) 17:34:36 435.950
MOZHAYETS 4 28 Feb 17:35:52 17:40:08 37° 289° (WNW) 17:44:23
AIST 1 28 Feb 17:36:37 17:40:06 23° 72° (ENE) 17:43:38
YUBILEINY 28 Feb 17:40:40 17:48:42 38° 290° (WNW) 17:56:40 435.215
CUBESAT XI-V 28 Feb 17:51:09 17:55:02 26° 93° (E) 17:58:58 437.345
PHONESAT 2.4 28 Feb 17:53:18 17:54:39 12° 147° (SSE) 17:56:05 2401.200-2431.200
PRISM 28 Feb 17:59:25 18:03:08 29° 96° (E) 18:06:52 437.425
VERMONT LUNAR 28 Feb 18:04:35 18:07:27 24° 154° (SSE) 18:10:22 437.305
M-CUBED/EXP-1 PRIME 28 Feb 18:10:19 18:12:18 13° 300° (WNW) 18:14:09 437.505
BRITE-PL 28 Feb 18:14:13 18:17:02 15° 63° (ENE) 18:20:03 437.365/2234.400
AUBIESAT-1 28 Feb 18:14:17 18:16:19 13° 299° (WNW) 18:18:13 437.475
Cubesat XI-IV 28 Feb 18:21:32 18:26:21 32° 264° (W) 18:31:07 437.490
HO-68 28 Feb 18:25:42 18:30:48 23° 58° (ENE) 18:36:09 435.675
GOMX 1 28 Feb 18:31:29 18:33:52 14° 63° (ENE) 18:36:28 467.674
CUTE-I 28 Feb 18:31:35 18:36:08 27° 266° (W) 18:40:37 437.470
STRAND 1 28 Feb 18:37:14 18:42:09 44° 98° (E) 18:47:04 437.568
BEESAT 3 28 Feb 18:42:17 18:45:57 30° 311° (NW) 18:49:39 437.485
AIST 2 28 Feb 18:48:47 18:53:02 74° 304° (WNW) 18:57:21 435.215
O/OREOS (USA 219) 28 Feb 18:55:41 18:59:58 37° 61° (ENE) 19:04:15 437.305
BEESAT 2 28 Feb 19:05:41 19:09:01 22° 315° (NW) 19:12:19 435.950
AIST 1 28 Feb 19:13:55 19:17:50 30° 269° (W) 19:21:39
DOVE 4 28 Feb 19:15:35 19:19:33 23° 68° (ENE) 19:23:30 437.250
AAUSAT CUBESAT 2 28 Feb 19:16:00 19:18:19 15° 66° (ENE) 19:20:47 437.432
COMPASS 1 28 Feb 19:16:19 19:19:00 17° 67° (ENE) 19:21:50 437.405
